GW5869 Weather Reports


Display with metric or nautical units.
time (UTC)temp
F
wind
direction
speed
MPH
gust
MPH
rain 1hr
in
rain 24hr
in
rain mn
in
humidity
%
barometer
mb
20260507234451 76 25 2.0 3.0 0.00 0.10 0.10 91 1016.8
20260507233949 77 52 3.0 3.0 0.00 0.10 0.10 91 1016.7
20260507233444 77 344 1.0 2.0 0.00 0.10 0.10 92 1016.6
20260507232943 76 4 2.0 2.0 0.00 0.10 0.10 92 1016.6
20260507232438 76 52 2.0 2.0 0.00 0.10 0.10 92 1016.8
20260507231936 76 328 2.0 3.0 0.00 0.10 0.10 92 1016.5
20260507231431 76 358 2.0 2.0 0.00 0.10 0.10 91 1016.4
20260507230928 77 293 1.0 1.0 0.00 0.10 0.10 91 1016.3
20260507230426 76 298 1.0 2.0 0.00 0.10 0.10 91 1016.3
20260507225926 77 27 3.0 3.0 0.00 0.10 0.10 90 1016.4
20260507225422 77 333 2.0 2.0 0.00 0.10 0.10 90 1016.2
20260507224919 76 75 3.0 3.0 0.00 0.10 0.10 90 1016.1
20260507224414 76 66 2.0 2.0 0.00 0.10 0.10 90 1016.1
20260507223911 76 48 6.0 8.0 0.00 0.10 0.10 90 1016.3
20260507223408 76 81 6.0 7.0 0.00 0.10 0.10 91 1016.1
20260507222905 77 46 4.0 4.0 0.00 0.10 0.10 92 1016.1
20260507222402 79 28 4.0 4.0 0.00 0.10 0.10 92 1016.2
20260507221859 79 320 2.0 2.0 0.00 0.10 0.10 91 1015.9
20260507221355 79 314 2.0 2.0 0.00 0.10 0.10 90 1015.8
20260507220851 79 275 1.0 1.0 0.00 0.10 0.10 89 1015.7
20260507220349 79 88 2.0 3.0 0.00 0.10 0.10 90 1015.7
20260507215845 80 244 1.0 1.0 0.05 0.10 0.10 91 1015.8
20260507215343 80 270 1.0 1.0 0.05 0.10 0.10 90 1015.7
20260507214840 80 349 1.0 2.0 0.00 0.09 0.09 90 1015.8
20260507214338 80 293 0.0 1.0 0.07 0.09 0.09 90 1015.9
20260507213837 80 257 1.0 1.0 0.07 0.09 0.09 89 1015.9
20260507213335 80 245 1.0 3.0 0.00 0.08 0.08 89 1015.4
20260507212831 80 269 1.0 1.0 0.00 0.08 0.08 89 1015.7
20260507212327 80 218 1.0 1.0 0.00 0.08 0.08 89 1015.5
20260507211824 80 263 1.0 1.0 0.07 0.08 0.08 88 1015.7
20260507211321 81 207 2.0 2.0 0.19 0.08 0.08 88 1015.5
20260507210817 81 244 1.0 2.0 0.24 0.07 0.07 87 1015.5
20260507210315 81 257 2.0 2.0 0.24 0.05 0.05 86 1015.3
20260507205811 82 266 0.0 0.0 0.07 0.02 0.02 86 1015.5
20260507205308 81 282 1.0 1.0 0.05 0.01 0.01 85 1015.6
20260507204804 82 205 2.0 2.0 0.05 0.01 0.01 84 1015.8
20260507204302 82 248 4.0 6.0 0.00 0.00 0.00 82 1015.7
20260507203759 83 235 4.0 7.0 0.00 0.00 0.00 80 1015.4
20260507203257 83 230 6.0 11.0 0.00 0.00 0.00 77 1015.5
20260507202753 83 174 5.0 7.0 0.00 0.00 0.00 76 1015.6
20260507202249 83 237 5.0 7.0 0.00 0.00 0.00 75 1015.6
20260507201744 83 248 4.0 4.0 0.00 0.00 0.00 75 1015.6
20260507201241 83 159 6.0 8.0 0.00 0.00 0.00 75 1015.5
20260507200737 84 268 6.0 10.0 0.00 0.00 0.00 74 1015.6
20260507200233 84 191 6.0 8.0 0.00 0.00 0.00 74 1015.7
20260507195730 84 241 4.0 4.0 0.00 0.00 0.00 74 1015.7
20260507195227 84 264 3.0 4.0 0.00 0.00 0.00 73 1015.7
20260507194724 85 151 7.0 10.0 0.00 0.00 0.00 72 1015.5
20260507194220 85 170 5.0 10.0 0.00 0.00 0.00 72 1015.6
20260507193717 85 252 2.0 2.0 0.00 0.00 0.00 71 1015.7
20260507193214 85 204 4.0 6.0 0.00 0.00 0.00 71 1015.8
20260507192710 84 181 7.0 13.0 0.00 0.00 0.00 71 1015.8
20260507192207 85 191 5.0 8.0 0.00 0.00 0.00 72 1015.8
20260507191702 84 271 7.0 11.0 0.00 0.00 0.00 75 1015.9
20260507191200 84 210 6.0 8.0 0.00 0.00 0.00 75 1016.1
20260507190657 84 169 5.0 7.0 0.00 0.00 0.00 74 1015.9
20260507190155 84 159 6.0 7.0 0.00 0.00 0.00 74 1016.1
20260507185653 84 156 4.0 4.0 0.00 0.00 0.00 74 1016.2
20260507185149 84 201 4.0 8.0 0.00 0.00 0.00 72 1016.1
20260507184647 85 214 7.0 9.0 0.00 0.00 0.00 72 1016.1
20260507184145 84 264 2.0 3.0 0.00 0.00 0.00 71 1016.2
20260507183641 85 212 3.0 4.0 0.00 0.00 0.00 71 1016.1
20260507183139 85 206 6.0 8.0 0.00 0.00 0.00 71 1016.1
20260507182635 86 270 4.0 6.0 0.00 0.00 0.00 71 1016.4
20260507182131 87 240 8.0 14.0 0.00 0.00 0.00 67 1016.3
20260507181628 89 170 4.0 6.0 0.00 0.00 0.00 65 1016.3
20260507181124 88 90 3.0 4.0 0.00 0.00 0.00 68 1016.5
20260507180620 89 135 8.0 10.0 0.00 0.00 0.00 65 1016.5
20260507180118 88 208 7.0 9.0 0.00 0.00 0.00 69 1016.5
20260507175613 89 219 2.0 3.0 0.00 0.00 0.00 63 1016.5
20260507175111 87 244 9.0 10.0 0.00 0.00 0.00 68 1016.6
20260507174608 88 223 10.0 13.0 0.00 0.00 0.00 65 1016.4
20260507174106 88 208 5.0 9.0 0.00 0.00 0.00 63 1016.8
20260507173603 87 233 9.0 10.0 0.00 0.00 0.00 68 1016.7
20260507173100 88 218 8.0 11.0 0.00 0.00 0.00 66 1016.8
20260507172555 87 181 7.0 10.0 0.00 0.00 0.00 68 1016.9
20260507172053 88 0 2.0 2.0 0.00 0.00 0.00 66 1017.0
20260507171548 88 264 8.0 10.0 0.00 0.00 0.00 68 1017.1
20260507171046 88 212 5.0 7.0 0.00 0.00 0.00 67 1017.0
20260507170542 88 147 7.0 8.0 0.00 0.00 0.00 66 1017.1
20260507170039 88 132 8.0 11.0 0.00 0.00 0.00 65 1017.2
20260507165535 87 217 3.0 4.0 0.00 0.00 0.00 65 1017.1
20260507165032 87 267 4.0 7.0 0.00 0.00 0.00 68 1017.4
20260507164528 87 186 9.0 11.0 0.00 0.00 0.00 66 1017.7
20260507164025 89 240 8.0 13.0 0.00 0.00 0.00 64 1017.6
20260507163522 88 214 10.0 16.0 0.00 0.00 0.00 66 1017.6
20260507163021 88 207 5.0 8.0 0.00 0.00 0.00 64 1017.6
20260507162520 88 206 9.0 11.0 0.00 0.00 0.00 64 1017.6
20260507162018 88 232 5.0 6.0 0.00 0.00 0.00 63 1017.7
20260507161514 88 283 5.0 6.0 0.00 0.00 0.00 64 1017.7
20260507161011 88 231 6.0 9.0 0.00 0.00 0.00 64 1017.8
20260507160507 88 212 5.0 6.0 0.00 0.00 0.00 63 1017.9
20260507160003 87 210 5.0 7.0 0.00 0.00 0.00 64 1018.0
20260507155459 88 209 6.0 7.0 0.00 0.00 0.00 67 1017.9
20260507154956 88 277 2.0 2.0 0.00 0.00 0.00 67 1018.1
20260507154453 87 215 10.0 15.0 0.00 0.00 0.00 70 1018.0
20260507153950 86 222 4.0 6.0 0.00 0.00 0.00 69 1018.1
20260507153447 87 212 7.0 10.0 0.00 0.00 0.00 70 1018.0
20260507152943 86 268 2.0 3.0 0.00 0.00 0.00 70 1018.2
20260507152439 87 212 7.0 9.0 0.00 0.00 0.00 70 1018.3
20260507151935 88 192 6.0 8.0 0.00 0.00 0.00 70 1018.1
20260507151432 87 222 4.0 7.0 0.00 0.00 0.00 69 1018.2
20260507150929 87 169 10.0 11.0 0.00 0.00 0.00 68 1018.4
20260507150426 87 211 7.0 9.0 0.00 0.00 0.00 68 1018.5
20260507145922 87 192 7.0 13.0 0.00 0.00 0.00 68 1018.4
20260507145418 87 102 7.0 13.0 0.00 0.00 0.00 67 1018.3
20260507144915 87 154 7.0 8.0 0.00 0.00 0.00 68 1018.4
20260507144412 87 186 9.0 10.0 0.00 0.00 0.00 69 1018.3
20260507143908 87 202 5.0 7.0 0.00 0.00 0.00 69 1018.4
20260507143406 88 210 5.0 8.0 0.00 0.00 0.00 68 1018.3
20260507142902 88 226 4.0 6.0 0.00 0.00 0.00 66 1018.4
20260507142358 87 234 5.0 7.0 0.00 0.00 0.00 68 1018.5
20260507141855 87 206 9.0 10.0 0.00 0.00 0.00 70 1018.7
20260507141352 86 247 2.0 2.0 0.00 0.00 0.00 69 1018.6
20260507140848 86 269 5.0 6.0 0.00 0.00 0.00 71 1018.6
20260507140345 87 173 4.0 4.0 0.00 0.00 0.00 69 1018.5
20260507135843 87 191 8.0 11.0 0.00 0.00 0.00 68 1018.6
20260507135340 87 248 6.0 8.0 0.00 0.00 0.00 67 1018.3
20260507134837 86 268 1.0 1.0 0.00 0.00 0.00 68 1018.4
20260507134333 86 164 6.0 7.0 0.00 0.00 0.00 69 1018.5
20260507133829 86 216 3.0 4.0 0.00 0.00 0.00 68 1018.5
20260507133325 85 238 6.0 7.0 0.00 0.00 0.00 68 1018.4
20260507132824 85 266 2.0 2.0 0.00 0.00 0.00 71 1018.4
20260507132319 84 256 4.0 4.0 0.00 0.00 0.00 71 1018.4
20260507131817 85 204 7.0 10.0 0.00 0.00 0.00 71 1018.3
20260507131313 85 149 5.0 7.0 0.00 0.00 0.00 69 1018.3
20260507130810 84 264 1.0 1.0 0.00 0.00 0.00 74 1018.3
20260507130308 84 167 5.0 8.0 0.00 0.00 0.00 74 1018.4
20260507125807 83 226 6.0 8.0 0.00 0.00 0.00 74 1018.2
20260507125306 84 231 3.0 3.0 0.00 0.00 0.00 73 1018.1
20260507124800 84 254 2.0 3.0 0.00 0.00 0.00 72 1018.1
20260507124257 84 230 2.0 3.0 0.00 0.00 0.00 73 1018.1
20260507123755 84 146 2.0 4.0 0.00 0.00 0.00 73 1018.3
20260507123253 83 270 3.0 6.0 0.00 0.00 0.00 75 1018.0
20260507122748 85 304 2.0 2.0 0.00 0.00 0.00 73 1018.2
20260507122244 85 67 2.0 3.0 0.00 0.00 0.00 73 1018.3
20260507121740 84 91 4.0 6.0 0.00 0.00 0.00 75 1017.9
20260507121236 84 280 1.0 1.0 0.00 0.00 0.00 73 1017.7
20260507120732 82 263 2.0 3.0 0.00 0.00 0.00 75 1017.9
20260507120229 83 237 1.0 2.0 0.00 0.00 0.00 72 1017.7
20260507115725 81 326 2.0 2.0 0.00 0.00 0.00 74 1017.8
20260507115221 80 274 0.0 1.0 0.00 0.00 0.00 76 1017.8
20260507114717 80 315 1.0 2.0 0.00 0.00 0.00 77 1017.7
20260507114215 80 297 1.0 1.0 0.00 0.00 0.00 77 1017.7
20260507113712 80 303 1.0 1.0 0.00 0.00 0.00 77 1017.8
20260507113209 80 280 2.0 2.0 0.00 0.00 0.00 76 1017.7
20260507112706 80 266 0.0 0.0 0.00 0.00 0.00 76 1017.6
20260507112203 80 286 0.0 1.0 0.00 0.00 0.00 75 1017.7
20260507111700 80 284 0.0 1.0 0.00 0.00 0.00 77 1017.7
20260507111157 78 289 2.0 2.0 0.00 0.00 0.00 79 1017.6
20260507110653 77 281 0.0 0.0 0.00 0.00 0.00 81 1017.7
20260507110150 77 316 2.0 2.0 0.00 0.00 0.00 82 1017.6
20260507105647 76 277 1.0 1.0 0.00 0.00 0.00 83 1017.4
20260507105142 76 337 2.0 2.0 0.00 0.00 0.00 84 1017.6
20260507104640 75 316 2.0 2.0 0.00 0.00 0.00 85 1017.5
20260507104136 75 321 1.0 1.0 0.00 0.00 0.00 86 1017.4
20260507103632 75 64 2.0 3.0 0.00 0.00 0.00 86 1017.3
20260507103130 74 82 1.0 2.0 0.00 0.00 0.00 87 1017.1
20260507102626 74 10 2.0 2.0 0.00 0.00 0.00 87 1017.1
20260507102122 74 349 2.0 2.0 0.00 0.00 0.00 87 1017.1
20260507101618 74 13 2.0 2.0 0.00 0.00 0.00 87 1016.9
20260507101114 74 276 1.0 2.0 0.00 0.00 0.00 87 1016.8
20260507100611 74 322 1.0 2.0 0.00 0.00 0.00 87 1017.0
20260507100110 74 341 2.0 2.0 0.00 0.00 0.00 87 1016.8
20260507095607 74 330 2.0 2.0 0.00 0.00 0.00 87 1017.0
20260507095104 74 21 2.0 3.0 0.00 0.00 0.00 87 1017.2
20260507094600 74 330 2.0 2.0 0.00 0.00 0.00 87 1017.1
20260507094057 74 317 1.0 1.0 0.00 0.00 0.00 87 1017.1
20260507093554 74 286 0.0 0.0 0.00 0.00 0.00 87 1017.1
20260507093053 74 286 0.0 0.0 0.00 0.00 0.00 87 1017.2
20260507092549 74 286 0.0 0.0 0.00 0.00 0.00 87 1017.1
20260507092046 74 285 1.0 1.0 0.00 0.00 0.00 87 1017.1
20260507091543 74 291 0.0 0.0 0.00 0.00 0.00 86 1017.2
20260507091039 75 306 1.0 1.0 0.00 0.00 0.00 86 1017.0
20260507090534 75 289 1.0 1.0 0.00 0.00 0.00 85 1016.9
20260507090032 75 309 1.0 1.0 0.00 0.00 0.00 85 1017.0
20260507085529 75 316 1.0 2.0 0.00 0.00 0.00 85 1017.2
20260507085025 75 335 2.0 3.0 0.00 0.00 0.00 85 1017.1
20260507084522 75 321 2.0 2.0 0.00 0.00 0.00 85 1016.9
20260507084019 75 36 3.0 3.0 0.00 0.00 0.00 85 1016.9
20260507083515 75 315 2.0 2.0 0.00 0.00 0.00 84 1017.0
20260507083013 75 11 3.0 3.0 0.00 0.00 0.00 85 1017.0
20260507082509 75 1 2.0 2.0 0.00 0.00 0.00 85 1016.9
20260507082005 74 299 2.0 2.0 0.00 0.00 0.00 86 1016.8
20260507081501 74 344 1.0 2.0 0.00 0.00 0.00 86 1016.8
20260507080958 74 310 1.0 1.0 0.00 0.00 0.00 85 1016.8
20260507080454 74 339 1.0 2.0 0.00 0.00 0.00 85 1016.8
20260507075949 74 311 1.0 1.0 0.00 0.00 0.00 85 1016.8
20260507075446 74 339 2.0 2.0 0.00 0.00 0.00 85 1016.7
20260507074943 74 38 2.0 3.0 0.00 0.00 0.00 85 1016.8
20260507074440 74 21 2.0 2.0 0.00 0.00 0.00 85 1016.9
20260507073938 74 57 3.0 3.0 0.00 0.00 0.00 86 1016.8
20260507073434 74 26 2.0 2.0 0.00 0.00 0.00 86 1017.0
20260507072930 73 308 1.0 1.0 0.00 0.00 0.00 86 1017.1
20260507072428 73 310 1.0 2.0 0.00 0.00 0.00 86 1017.0
20260507071925 74 300 1.0 1.0 0.00 0.00 0.00 86 1017.0
20260507071422 74 286 0.0 0.0 0.00 0.00 0.00 86 1017.1
20260507070918 74 319 2.0 2.0 0.00 0.00 0.00 86 1017.1
20260507070416 74 342 2.0 2.0 0.00 0.00 0.00 86 1017.1
20260507065913 74 292 1.0 1.0 0.00 0.00 0.00 86 1017.1
20260507065409 74 304 0.0 1.0 0.00 0.00 0.00 85 1017.2
20260507064907 74 3 2.0 2.0 0.00 0.00 0.00 85 1017.4
20260507064405 74 322 2.0 2.0 0.00 0.00 0.00 85 1017.2
20260507063902 74 359 2.0 3.0 0.00 0.00 0.00 85 1017.5
20260507063359 74 307 1.0 1.0 0.00 0.00 0.00 85 1017.3
20260507062856 74 329 1.0 2.0 0.00 0.00 0.00 85 1017.4
20260507062353 74 330 2.0 2.0 0.00 0.00 0.00 84 1017.5
20260507061851 74 31 2.0 3.0 0.00 0.00 0.00 84 1017.7
20260507061348 75 305 1.0 1.0 0.00 0.00 0.00 84 1017.6
20260507060847 75 351 1.0 2.0 0.00 0.00 0.00 84 1017.6
20260507060343 75 23 2.0 3.0 0.00 0.00 0.00 84 1017.8
20260507055840 75 285 1.0 1.0 0.00 0.00 0.00 84 1018.0
20260507055335 75 59 2.0 2.0 0.00 0.00 0.00 83 1018.0
20260507054832 75 301 1.0 1.0 0.00 0.00 0.00 84 1018.1
20260507054328 75 310 1.0 1.0 0.00 0.00 0.00 84 1017.9
20260507053825 75 41 2.0 2.0 0.00 0.00 0.00 84 1018.0
20260507053323 75 59 2.0 3.0 0.00 0.00 0.00 84 1018.1
20260507052822 75 349 2.0 3.0 0.00 0.00 0.00 84 1018.1
20260507052318 75 18 2.0 2.0 0.00 0.00 0.00 84 1018.3
20260507051816 75 301 1.0 1.0 0.00 0.00 0.00 84 1018.3
20260507051313 75 296 2.0 2.0 0.00 0.00 0.00 84 1018.4
20260507050810 75 66 2.0 2.0 0.00 0.00 0.00 84 1018.5
20260507050306 75 353 2.0 2.0 0.00 0.00 0.00 84 1018.6
20260507045803 75 16 1.0 2.0 0.00 0.00 0.00 84 1018.6
20260507045300 75 340 2.0 2.0 0.00 0.00 0.00 84 1018.8
20260507044757 75 307 1.0 1.0 0.00 0.00 0.00 84 1018.9
20260507044253 75 311 1.0 2.0 0.00 0.00 0.00 83 1018.8
20260507043749 76 310 2.0 2.0 0.00 0.00 0.00 83 1019.0
20260507043246 76 60 3.0 4.0 0.00 0.00 0.00 83 1019.0
20260507042742 76 59 3.0 3.0 0.00 0.00 0.00 83 1019.2
20260507042237 75 331 2.0 2.0 0.00 0.00 0.00 83 1019.1
20260507041736 75 40 3.0 3.0 0.00 0.00 0.00 84 1019.3
20260507041232 75 39 3.0 3.0 0.00 0.00 0.00 85 1019.0
20260507040729 75 302 1.0 1.0 0.00 0.00 0.00 85 1019.1
20260507040225 75 311 1.0 1.0 0.00 0.00 0.00 85 1019.1
20260507035721 75 331 1.0 2.0 0.00 0.00 0.00 85 1019.4
20260507035217 76 343 2.0 2.0 0.00 0.00 0.00 84 1019.3
20260507034714 76 348 2.0 2.0 0.00 0.00 0.00 84 1019.5
20260507034211 75 20 2.0 3.0 0.00 0.00 0.00 85 1019.4
20260507033710 76 323 1.0 2.0 0.00 0.00 0.00 85 1019.5
20260507033207 76 321 2.0 3.0 0.00 0.00 0.00 84 1019.5
20260507032704 76 14 2.0 2.0 0.00 0.00 0.00 84 1019.5
20260507032159 76 61 2.0 3.0 0.00 0.00 0.00 83 1019.4
20260507031657 76 318 2.0 2.0 0.00 0.00 0.00 83 1019.4
20260507031153 76 349 3.0 3.0 0.00 0.00 0.00 84 1019.2
20260507030650 76 41 2.0 3.0 0.00 0.00 0.00 84 1019.3
20260507030148 76 24 2.0 2.0 0.00 0.00 0.00 84 1019.4
20260507025645 76 16 4.0 4.0 0.00 0.00 0.00 84 1019.4
20260507025142 76 35 1.0 1.0 0.00 0.00 0.00 84 1019.4
20260507024640 76 299 1.0 1.0 0.00 0.00 0.00 84 1019.4
20260507024137 76 310 1.0 2.0 0.00 0.00 0.00 84 1019.5
20260507023632 77 334 1.0 2.0 0.00 0.00 0.00 84 1019.6
20260507023130 77 304 1.0 1.0 0.00 0.00 0.00 83 1019.4
20260507022627 77 326 2.0 2.0 0.00 0.00 0.00 83 1019.4
20260507022122 77 317 2.0 2.0 0.00 0.00 0.00 83 1019.4
20260507021619 78 340 2.0 2.0 0.00 0.00 0.00 82 1019.4
20260507021115 78 330 1.0 2.0 0.00 0.00 0.00 82 1019.3
20260507020613 78 353 2.0 3.0 0.00 0.00 0.00 82 1019.3
20260507020109 78 19 2.0 2.0 0.00 0.00 0.00 82 1019.4
20260507015607 78 10 2.0 2.0 0.00 0.00 0.00 82 1019.2
20260507015104 78 53 2.0 3.0 0.00 0.00 0.00 82 1019.2
20260507014601 78 315 2.0 3.0 0.00 0.00 0.00 82 1019.1
20260507014056 78 316 1.0 1.0 0.00 0.00 0.00 83 1019.3
20260507013553 78 328 1.0 1.0 0.00 0.00 0.00 82 1019.1
20260507013051 78 32 2.0 2.0 0.00 0.00 0.00 82 1019.1
20260507012548 78 329 1.0 2.0 0.00 0.00 0.00 82 1018.8
20260507012044 78 309 2.0 2.0 0.00 0.00 0.00 83 1019.1
20260507011541 79 46 2.0 3.0 0.00 0.00 0.00 82 1018.8
20260507011038 79 27 3.0 3.0 0.00 0.00 0.00 83 1018.9
20260507010532 80 293 0.0 1.0 0.00 0.00 0.00 82 1018.7
20260507010029 80 287 1.0 1.0 0.00 0.00 0.00 81 1018.9
20260507005526 80 89 2.0 3.0 0.00 0.00 0.00 80 1018.7
20260507005022 81 326 2.0 2.0 0.00 0.00 0.00 79 1018.9
20260507004520 81 120 3.0 3.0 0.00 0.00 0.00 79 1018.7
20260507004017 81 84 2.0 3.0 0.00 0.00 0.00 79 1018.8
20260507003512 81 285 1.0 2.0 0.00 0.00 0.00 78 1018.5
20260507003008 81 5 1.0 2.0 0.00 0.00 0.00 78 1018.6
20260507002504 81 110 2.0 3.0 0.00 0.00 0.00 78 1018.6
20260507002001 81 234 1.0 1.0 0.00 0.00 0.00 78 1018.3
20260507001457 82 129 2.0 3.0 0.00 0.00 0.00 78 1018.5
20260507000955 82 278 1.0 1.0 0.00 0.00 0.00 78 1018.3
20260507000450 82 283 0.0 0.0 0.00 0.00 0.00 78 1018.4
20260506235946 82 233 0.0 1.0 0.00 0.00 0.00 78 1018.2
20260506235444 82 286 0.0 1.0 0.00 0.00 0.00 78 1018.2
20260506234939 82 273 1.0 1.0 0.00 0.00 0.00 78 1018.2